Showing default

DUMMY SAT 3/ORION, 59479

Orbit data source: Space-Track

DUMMY SAT 3/ORION, 59479 is a payload satellite owned by Khrunichev (CIS) in GEO that was launched on Thu, 11 Apr 2024 UTC via an ANGARA A5/ORION launch vehicle from the Vostochny Cosmodrome (VOSTO). Payload-class satellites include a variety of spacecraft equipped with specific instruments for various scientific and technological missions. These include communications satellites like Starlink; space stations such as the ISS; scientific satellites like the Hubble; Earth observation satellites from companies like Planet Labs, Umbra, and HawkEye 360; GPS; miniature CubeSats for education and research; and military/defense satellites.

Not visible in the next 10 days
Identifier
59479, 2024-069A
Orbit
GEO
Country
Flag of CISCIS
Related business
Manufacturer
Khrunichev
Mission
Operational Civil Technology
Bus & Motor
GVM, Unknown motor
Mass
~20,000 kg wet, 2,400 kg dry
Launch date (UTC)
2024-04-11 (2 years ago)
Launch vehicle
ANGARA A5/ORION
Launch site
Vostochny Cosmodrome (VOSTO)
Object type
Payload
Rocket body
Debris
Shape & HBR
Cyl, 5.9 m
Radar Cross Section
37.632 m²

Expand to show TLE details & history
Last TLE update: 12 hours ago

TLE from 12 hours ago
0 DUMMY SAT 3/ORION
1 59479U 24069A   26266.79013735 -.00000240  00000-0  00000-0 0  9999
2 59479   2.3799  80.1929 0052469 137.3639 223.6936  0.98609544  8782
Epoch: 2026-09-23T18:57Z
TLE epoch observation values (Epoch: 2026-09-23T18:57:47.867Z)
Latitude
-0°
Longitude
153.72698°
Altitude
36,420.322 km
Speed
3.046 km/s
True Right ascension
05h 23m 15s
True Declination
0° 00' 00"
Sunlit
Object was in daylight at epoch
Visualization orbit readout
Latitude
Unknown
Longitude
Unknown
Altitude
Unknown
Speed
Unknown
Apparent Right ascension
Unknown
Apparent Declination
Unknown
Sunlit
N/A
Visualization observer readout
Local Sidereal Time
00:15:44
Azimuth
Unknown
Elevation
Unknown
Doppler factor
Unknown
Orbital elements
Apogee altitude
36,483.891 km
Perigee altitude
36,036.453 km
Semi-major axis
42,638.309 km
Eccentricity
0.00525
Inclination
2.3799°
RAAN
80.1929°
Arg. of periapsis
137.3639°
True anomaly
223.28022°
Mean anomaly
223.6936°
Eccentric anomaly
223.48671°
Mean motion
0.24651 °/min
Orbital period
1,460.36 mins
BSTAR
0
Loading maneuver chart data...
Computing Atmospheric mass density...
Loading historical data...
Loading historical data...
Loading historical data...
Loading historical data...
Loading historical data...
Loading historical data...
Loading historical data...
Other satellites on launch #69 in the year 2024 (2024-04-11 UTC)

Documentation

Showing up to 5 results
|